COSMOS 2251 DEB, 40218

Orbit data source: Space-Track

COSMOS 2251 DEB, 40218 is space debris in LEO originally from a launch on Wed, 16 Jun 1993 UTC launched from the Plesetsk Missile And Space Complex (PKMTR). The debris from Iridium 33, an American commercial communications satellite, has been tracked extensively since its accidental collision with the defunct Russian satellite Cosmos 2251 in 2009. This event, occurring at high speed in low Earth orbit (LEO), generated thousands of pieces of space debris, significantly increasing the risk of further collisions. The Iridium 33 debris cloud has impacted space traffic management and orbital debris mitigation strategies, making it a subject of ongoing study in space situational awareness.

Loading next visibility...
Identifier
40218, 1993-036BUX
Orbit
LEO
Country
Flag of CISCIS
Related business
Manufacturer
Unknown
Mission
Spacecraft
Bus & Motor
Unknown
Mass
Unknown
Launch date (UTC)
1993-06-16 (33 years ago)
Launch vehicle
Unknown
Launch site
Plesetsk Missile And Space Complex (PKMTR)
Object type
Payload
Rocket body
Debris
Shape & HBR
Unknown shape, 0.1 m
Radar Cross Section
Small (<0.1 m²)

Expand to show TLE details & history
Last TLE update: 6 days ago

TLE from 6 days ago
0 COSMOS 2251 DEB
1 40218U 93036BUX 26167.52649298  .00000644  00000-0  20392-3 0  9996
2 40218  74.0309 264.4127 0017410 307.6617  52.2959 14.42019402615392
Epoch: 2026-06-16T12:38Z
TLE epoch observation values (Epoch: 2026-06-16T12:38:08.993Z)
Latitude
-0.00002°
Longitude
170.07797°
Altitude
746.873 km
Speed
7.485 km/s
True Right ascension
17h 37m 39s
True Declination
0° 00' 00"
Sunlit
Object was in full shadow at epoch
Visualization orbit readout
Latitude
Unknown
Longitude
Unknown
Altitude
Unknown
Speed
Unknown
Apparent Right ascension
Unknown
Apparent Declination
Unknown
Sunlit
N/A
Visualization observer readout
Local Sidereal Time
21:39:44
Azimuth
Unknown
Elevation
Unknown
Doppler factor
Unknown
Orbital elements
Apogee altitude
761.861 km
Perigee altitude
737.043 km
Semi-major axis
7,127.589 km
Eccentricity
0.00174
Inclination
74.0309°
RAAN
264.4127°
Arg. of periapsis
307.6617°
True anomaly
52.45395°
Mean anomaly
52.2959°
Eccentric anomaly
52.37491°
Mean motion
3.60686 °/min
Orbital period
99.81 mins
BSTAR
0.00020392
Loading maneuver chart data...
Computing Atmospheric mass density...

Documentation

Showing up to 5 results
|